This is the latest recevied weather packets stored in our database for station/object K8JMX-13. If no packets are shown the sender has not sent any weather packets the latest 10 day(s).
| Time | Temp. | Humidity | Pressure | Rain* | Wind** | Luminosity | Snow |
|---|---|---|---|---|---|---|---|
| 1777675503 | 9.44° C | 64% | 1013.4 hPa | 0 mm | - | 61 W/m² | - |
| 1777675199 | 9.44° C | 64% | 1013.6 hPa | 0 mm | - | 71 W/m² | - |
| 1777674895 | 9.44° C | 63% | 1013.4 hPa | 0 mm | - | 60 W/m² | - |
| 1777674591 | 9.44° C | 63% | 1013.5 hPa | 0 mm | - | 69 W/m² | - |
| 1777674289 | 9.44° C | 63% | 1013.4 hPa | 0 mm | - | 69 W/m² | - |
| 1777673985 | 9.44° C | 63% | 1013.4 hPa | 0 mm | - | 110 W/m² | - |
| 1777673682 | 10° C | 63% | 1013.4 hPa | 0 mm | - | 108 W/m² | - |
| 1777673380 | 9.44° C | 62% | 1013.7 hPa | 0 mm | - | 294 W/m² | - |
| 1777673077 | 10° C | 63% | 1013.6 hPa | 0 mm | - | 75 W/m² | - |
| 1777672773 | 10° C | 63% | 1013.7 hPa | 0 mm | - | 328 W/m² | - |
| 1777672470 | 10° C | 64% | 1013.6 hPa | 0 mm | - | 343 W/m² | - |
| 1777672165 | 9.44° C | 66% | 1013.8 hPa | 0 mm | - | 406 W/m² | - |
| 1777671862 | 9.44° C | 67% | 1013.6 hPa | 0 mm | - | 166 W/m² | - |
| 1777671556 | 9.44° C | 67% | 1013.8 hPa | 0 mm | - | 428 W/m² | - |
| 1777671254 | 9.44° C | 65% | 1013.7 hPa | 0 mm | - | 130 W/m² | - |
| 1777670949 | 10° C | 65% | 1013.5 hPa | 0 mm | - | 179 W/m² | - |
| 1777670646 | 9.44° C | 64% | 1013.5 hPa | 0 mm | - | 137 W/m² | - |
| 1777670343 | 8.89° C | 67% | 1013.2 hPa | 0 mm | - | 244 W/m² | - |
| 1777670040 | 9.44° C | 67% | 1013.2 hPa | 0 mm | - | 178 W/m² | - |
| 1777669738 | 9.44° C | 68% | 1013 hPa | 0 mm | - | 218 W/m² | - |
| 1777669434 | 8.33° C | 69% | 1013.2 hPa | 0 mm | - | 259 W/m² | - |
| 1777669131 | 8.33° C | 70% | 1013.1 hPa | 0 mm | - | 151 W/m² | - |
| 1777668828 | 8.33° C | 70% | 1013 hPa | 0 mm | - | 70 W/m² | - |
| 1777668525 | 8.33° C | 70% | 1013 hPa | 0 mm | - | 97 W/m² | - |
| 1777668222 | 8.33° C | 70% | 1012.8 hPa | 0 mm | - | 58 W/m² | - |
* Rain latest hour (hover to see other rain measurements)
** Current wind speed in m/s (hover to see current wind gust speed)